Regional Weather Roundup
Issued by NWS Cleveland, OH

Home | Current Version | Previous Version | Text Only | Print | Product List | Glossary Off
Versions: 1 2 3 4 5 6 7 8 9 10 11 12 13 14 15 16 17 18 19 20 21 22 23 24 25 26 27 28 29 30 31 32 33 34 35 36 37 38 39 40 41 42 43 44 45 46 47 48 49 50

663
ASUS41 KCLE 301910
RWRCLE
OHIO REGIONAL WEATHER ROUNDUP
NATIONAL WEATHER SERVICE WILMINGTON, OH
300 PM EDT SAT JUL 30 2016

NOTE: "FAIR" INDICATES FEW OR NO CLOUDS BELOW 12,000 FEET WITH NO
SIGNIFICANT WEATHER AND/OR OBSTRUCTIONS TO VISIBILITY.

OHZ001>008-015>018-024>027-034-035-043-044-302000-
   NORTHWEST OHIO

CITY           SKY/WX    TMP DP  RH WIND       PRES   REMARKS
DEFIANCE       CLOUDY    78  69  73 N7        29.96F
FINDLAY        FAIR      82  68  62 W13       29.94F
TOLEDO EXPRESS HVY RAIN  73  72  96 N9        29.96S FOG
TOLEDO EXEC    FAIR      77  72  84 NE8       29.96F
LIMA           PTSUNNY   80  70  71 W3        29.95F
$$

OHZ009>014-019>023-028>033-038-089-302000-
   NORTHEAST OHIO

CITY           SKY/WX    TMP DP  RH WIND       PRES   REMARKS
CLE-HOPKINS    PTSUNNY   76  68  76 SE8       29.97R
CLE-LAKEFRONT  PTSUNNY   78  71  79 NE13      29.93S
CUY CO. ARPT   PTSUNNY   77  75  94 N6        29.95S
LORAIN-ELYRIA  LGT RAIN  76  70  82 E8        29.95S
ASHTABULA      PTSUNNY   79  71  76 E7        29.96F
AKRON-CANTON   PTSUNNY   81  67  62 S8        29.94F THUNDER
WOOSTER        TSTM      68  66  93 W7        29.96S
MANSFIELD      PTSUNNY   80  69  69 N10       29.94F
YOUNGSTOWN     PTSUNNY   79  68  69 SE8       29.95F
$$

OHZ042-051>053-060>062-070>072-077>081-302000-
  SOUTHWEST OHIO

CITY           SKY/WX    TMP DP  RH WIND       PRES   REMARKS
CINC-COVINGTON PTSUNNY   85  68  56 W5        29.96F
CINC-LUNKEN    PTSUNNY   86  69  56 W10       29.94F HX  90
HAMILTON       FAIR      86  67  52 CALM      29.95F
DAYTON         FAIR      85  66  53 VRB7      29.96F
WRIGHT-PAT AFB MOSUNNY   85  65  52 SW7       29.94F
DAYTON GENERAL FAIR      84  66  54 NW7       29.95F
WILMINGTON     FAIR      84  67  56 W5        29.96F
$$

OHZ036-037-039>041-045>050-054>059-063>069-073>076-082>088-302000-
  CENTRAL AND SOUTHEAST OHIO

CITY           SKY/WX    TMP DP  RH WIND       PRES   REMARKS
COLUMBUS       FAIR      83  68  60 SW9G20    29.93F
OSU AIRPORT    FAIR      84  70  62 SW8       29.94F
BOLTON FIELD   MOSUNNY   82  72  69 W6        29.96F
RICKENBACK AFB FAIR      84  71  65 W8        29.94F
NEWARK         FAIR      85  71  63 VRB7      29.93F HX  90
MARION         PTSUNNY   79  63  57 N14       29.95F
LANCASTER      FAIR      84  70  62 W9        29.95F
ZANESVILLE     FAIR      85  69  58 W7        29.94F
NEW PHILLY     PTSUNNY   84  68  58 S8        29.94F
$$




USA.gov is the U.S. government's official web portal to all federal, state and local government web resources and services.